This is the latest recevied weather packets stored in our database for station/object OM5ZU-10. If no packets are shown the sender has not sent any weather packets the latest 10 day(s).
| Time | Temp. | Humidity | Pressure | Rain* | Wind** | Luminosity | Snow |
|---|---|---|---|---|---|---|---|
| 1787888790 | 19.44° C | 54% | 1017.8 hPa | - | - | - | - |
| 1787887890 | 19.44° C | 55% | 1017.8 hPa | - | - | - | - |
| 1787886990 | 19.44° C | 54% | 1017.8 hPa | - | - | - | - |
| 1787886090 | 19.44° C | 53% | 1017.6 hPa | - | - | - | - |
| 1787885188 | 20° C | 53% | 1017.4 hPa | - | - | - | - |
| 1787884288 | 20° C | 52% | 1017.6 hPa | - | - | - | - |
| 1787883388 | 20° C | 52% | 1017.5 hPa | - | - | - | - |
| 1787882488 | 20° C | 52% | 1017.5 hPa | - | - | - | - |
| 1787881588 | 20° C | 52% | 1017.5 hPa | - | - | - | - |
| 1787880687 | 20.56° C | 52% | 1017.8 hPa | - | - | - | - |
| 1787879794 | 20.56° C | 52% | 1017.6 hPa | - | - | - | - |
| 1787878887 | 20.56° C | 52% | 1017.7 hPa | - | - | - | - |
| 1787877987 | 20.56° C | 52% | 1017.8 hPa | - | - | - | - |
| 1787877087 | 20.56° C | 52% | 1018 hPa | - | - | - | - |
| 1787876187 | 20.56° C | 51% | 1018 hPa | - | - | - | - |
| 1787875286 | 21.11° C | 51% | 1018.3 hPa | - | - | - | - |
| 1787874386 | 21.11° C | 51% | 1018 hPa | - | - | - | - |
| 1787873486 | 21.11° C | 51% | 1018.1 hPa | - | - | - | - |
| 1787872586 | 21.11° C | 51% | 1018 hPa | - | - | - | - |
| 1787871686 | 21.11° C | 51% | 1018.3 hPa | - | - | - | - |
| 1787870786 | 21.11° C | 52% | 1018.2 hPa | - | - | - | - |
| 1787869886 | 21.11° C | 55% | 1018.4 hPa | - | - | - | - |
| 1787868985 | 21.11° C | 58% | 1018.6 hPa | - | - | - | - |
| 1787868085 | 18.33° C | 72% | 1018.4 hPa | - | - | - | - |
| 1787867185 | 18.89° C | 70% | 1018.3 hPa | - | - | - | - |
* Rain since midnight (hover to see other rain measurements)
** Current wind speed in m/s (hover to see current wind gust speed)